Date String (YYYY-MM-DD hh:mm:ss) UTC,Instrument flags,absolute air pressure of the measurement (hPa),sample flow rate (lpm),inlet stack bypass flow (lpm),air temperature of the measurement (°C),ambient temperature measured by the external sensor (°C),aerosol sample conditioner tube jacket temperature (°C),OPC LED temperature (°C),internal box temperature (°C),relative humidity of the measurement (%),span deviation,mass concentration of particles derived from Lorenz-Mie calculation of OPC scattering (μg/m³),mass concentration of particles derived from Lorenz-Mie calculation of OPC scattering (μg/m³),mass concentration of particles derived from Lorenz-Mie calculation of OPC scattering (μg/m³)
DateTimeUTC,F1_M11,P_M11,Q1_M11,Q2_M11,T1_M11,T2_M11,T3_M11,T4_M11,T5_M11,U1_M11,ZSPAN_M11,X0_M11,X2_M11,X1_M11
2024-01-20 14:00:00,SystemResetWarning,0828.9,5.00,000.00,018.7,018.0,000.0,027.2,020.0,12.5,0000.0,0013.11,0008.08,0007.54
2024-01-20 14:01:00,SystemResetWarning,0828.8,5.00,000.00,018.7,018.0,000.0,027.2,020.0,12.5,0000.0,0013.48,0008.08,0007.54
2024-01-20 14:02:00,SystemResetWarning,0828.8,4.99,000.00,018.7,018.0,000.0,027.2,020.0,12.5,0000.0,0013.35,0008.07,0007.53
2024-01-20 14:03:00,SystemResetWarning,0828.8,4.99,000.00,018.7,018.0,000.0,027.2,020.0,12.5,0000.0,0013.09,0008.02,0007.54
2024-01-20 14:04:00,SystemResetWarning,0828.7,5.00,000.00,018.7,017.9,000.0,027.2,020.0,12.4,0000.0,0013.14,0008.01,0007.51
2024-01-20 14:05:00,SystemResetWarning,0828.8,5.00,000.00,018.7,017.9,000.0,027.2,020.0,12.3,0000.0,0013.34,0008.04,0007.50
2024-01-20 14:06:00,SystemResetWarning,0828.8,5.01,000.00,018.7,017.9,000.0,027.2,020.0,12.3,0000.0,0013.74,0008.03,0007.47
2024-01-20 14:07:00,SystemResetWarning,0828.8,5.00,000.00,018.7,017.9,000.0,027.2,020.0,12.3,0000.0,0013.58,0008.02,0007.44
2024-01-20 14:08:00,SystemResetWarning,0828.9,5.00,000.00,018.7,017.9,000.0,027.2,020.0,12.4,0000.0,0013.55,0007.99,0007.45
2024-01-20 14:09:00,SystemResetWarning,0828.8,5.00,000.00,018.7,017.9,000.0,027.2,020.0,12.4,0000.0,0013.24,0007.96,0007.43
2024-01-20 14:10:00,SystemResetWarning,0828.8,4.99,000.00,018.7,017.9,000.0,027.2,020.0,12.4,0000.0,0013.08,0007.95,0007.41
2024-01-20 14:11:00,SystemResetWarning,0828.7,4.99,000.00,018.7,017.9,000.0,027.2,020.0,12.4,0000.5,0013.07,0007.96,0007.40
2024-01-20 14:12:00,SystemResetWarning,0828.8,5.00,000.00,018.7,017.9,000.0,027.2,020.0,12.3,0000.0,0012.78,0007.94,0007.39
2024-01-20 14:13:00,SystemResetWarning,0828.7,5.01,000.00,018.7,017.8,000.0,027.2,020.0,12.2,0000.0,0012.83,0007.92,0007.38
2024-01-20 14:14:00,SystemResetWarning,0828.7,5.01,000.00,018.7,018.0,000.0,027.2,020.3,12.2,0002.7,0012.83,0007.88,0007.36
2024-01-20 14:15:00,SystemResetWarning,0828.8,5.00,000.00,018.9,018.6,000.0,027.2,020.8,12.1,0003.2,0013.21,0007.93,0007.38
2024-01-20 14:16:00,SystemResetWarning,0828.8,5.00,000.00,019.0,019.1,000.0,027.2,020.9,12.1,0003.4,0013.98,0007.97,0007.37
2024-01-20 14:17:00,SystemResetWarning,0828.7,4.99,000.00,019.1,019.0,000.0,027.2,020.6,12.2,0003.3,0013.47,0007.98,0007.39
2024-01-20 14:18:00,SystemResetWarning,0828.7,4.99,000.00,019.0,018.9,000.0,027.2,020.4,12.3,0003.5,0013.52,0007.94,0007.38
2024-01-20 14:19:00,SystemResetWarning,0828.7,5.01,000.00,019.0,018.8,000.0,027.2,020.3,12.2,0003.6,0014.01,0007.88,0007.35
2024-01-20 14:20:00,SystemResetWarning,0828.8,5.00,000.00,019.0,018.7,000.0,027.2,020.2,12.1,0003.9,0014.68,0007.91,0007.35
2024-01-20 14:21:00,SystemResetWarning,0828.8,5.00,000.00,019.0,018.6,000.0,027.2,020.2,12.2,0004.0,0014.66,0007.91,0007.35
2024-01-20 14:22:00,SystemResetWarning,0828.8,5.00,000.00,019.0,018.5,000.0,027.2,020.1,12.1,0002.1,0014.64,0007.92,0007.38
2024-01-20 14:23:00,SystemResetWarning,0828.7,5.00,000.00,018.9,018.4,000.0,027.2,020.1,12.1,0003.2,0014.63,0007.95,0007.41
2024-01-20 14:24:00,SystemResetWarning,0828.8,5.00,000.00,018.9,018.3,000.0,027.2,020.1,12.0,0003.5,0014.53,0007.98,0007.44
2024-01-20 14:25:00,SystemResetWarning,0828.7,5.00,000.00,018.9,018.3,000.0,027.2,020.0,12.0,0000.4,0014.96,0008.03,0007.46
2024-01-20 14:26:00,SystemResetWarning,0828.8,5.00,000.00,018.8,018.3,000.0,027.2,020.0,12.0,0000.0,0015.02,0008.02,0007.49
2024-01-20 14:27:00,SystemResetWarning,0828.8,5.00,000.00,018.8,018.2,000.0,027.2,020.0,12.1,0000.0,0014.33,0008.02,0007.52
2024-01-20 14:28:00,SystemResetWarning,0828.8,5.00,000.00,018.8,018.1,000.0,027.2,020.0,12.2,0000.0,0013.90,0008.03,0007.54
2024-01-20 14:29:00,SystemResetWarning,0828.8,5.02,000.00,018.8,018.1,000.0,027.2,020.0,12.3,0000.0,0013.81,0008.07,0007.59
2024-01-20 14:30:00,SystemResetWarning,0828.8,5.00,000.00,018.8,018.1,000.0,027.2,020.0,12.3,0000.0,0013.44,0008.14,0007.64
2024-01-20 14:31:00,SystemResetWarning,0828.7,4.99,000.00,018.8,018.0,000.0,027.2,020.0,12.4,0000.0,0012.97,0008.16,0007.68
2024-01-20 14:32:00,SystemResetWarning,0828.7,5.00,000.00,018.8,018.0,000.0,027.2,020.0,12.4,0000.0,0013.66,0008.19,0007.73
2024-01-20 14:33:00,SystemResetWarning,0828.7,4.99,000.00,018.8,018.0,000.0,027.2,020.0,12.4,0002.3,0014.45,0008.20,0007.75
2024-01-20 14:34:00,SystemResetWarning,0828.7,5.01,000.00,018.8,018.0,000.0,027.2,020.0,12.5,0000.3,0014.59,0008.25,0007.77
2024-01-20 14:35:00,SystemResetWarning,0828.7,5.01,000.00,018.8,018.0,000.0,027.2,020.0,12.5,0000.0,0014.54,0008.27,0007.80
2024-01-20 14:36:00,SystemResetWarning,0828.7,5.00,000.00,018.8,018.0,000.0,027.2,020.0,12.5,0000.5,0014.26,0008.27,0007.82
2024-01-20 14:37:00,SystemResetWarning,0828.7,4.99,000.00,018.8,018.0,000.0,027.2,020.0,12.6,0000.4,0013.84,0008.32,0007.86
2024-01-20 14:38:00,SystemResetWarning,0828.7,5.00,000.00,018.7,017.9,000.0,027.2,020.0,12.6,0000.0,0013.87,0008.37,0007.89
2024-01-20 14:39:00,SystemResetWarning,0828.7,5.00,000.00,018.7,017.9,000.0,027.2,020.0,12.7,0000.0,0013.83,0008.38,0007.93
2024-01-20 14:40:00,SystemResetWarning,0828.7,5.01,000.00,018.7,017.9,000.0,027.2,020.0,12.8,0000.0,0014.40,0008.46,0007.96
2024-01-20 14:41:00,SystemResetWarning,0828.6,5.01,000.00,018.7,017.9,000.0,027.2,020.0,12.8,0000.0,0014.73,0008.50,0008.00
2024-01-20 14:42:00,SystemResetWarning,0828.7,5.00,000.00,018.7,017.9,000.0,027.2,020.0,12.8,0000.0,0014.60,0008.53,0007.99
2024-01-20 14:43:00,SystemResetWarning,0828.7,4.99,000.00,018.7,017.9,000.0,027.2,020.0,12.8,0000.0,0014.04,0008.56,0007.99
2024-01-20 14:44:00,SystemResetWarning,0828.6,4.99,000.00,018.7,017.9,000.0,027.2,020.0,12.9,0000.0,0014.10,0008.60,0008.01
2024-01-20 14:45:00,SystemResetWarning,0828.6,5.00,000.00,018.7,017.9,000.0,027.2,020.0,13.0,0000.0,0014.39,0008.60,0008.01
2024-01-20 14:46:00,SystemResetWarning,0828.6,5.00,000.00,018.7,017.8,000.0,027.2,020.0,13.0,0000.0,0014.29,0008.58,0008.00
2024-01-20 14:47:00,SystemResetWarning,0828.6,5.00,000.00,018.7,017.8,000.0,027.2,020.0,13.0,0000.0,0014.33,0008.56,0007.99
2024-01-20 14:48:00,SystemResetWarning,0828.7,5.01,000.00,018.7,017.8,000.0,027.2,020.1,13.0,0000.0,0014.26,0008.54,0007.98
2024-01-20 14:49:00,SystemResetWarning,0828.6,5.01,000.00,018.8,018.1,000.0,027.2,020.5,12.9,0000.3,0014.19,0008.52,0007.97
2024-01-20 14:50:00,SystemResetWarning,0828.6,5.00,000.00,018.9,018.9,000.0,027.2,020.9,12.8,0001.4,0014.27,0008.53,0007.97
2024-01-20 14:51:00,SystemResetWarning,0828.6,4.98,000.00,019.0,019.1,000.0,027.2,020.8,12.8,0000.6,0013.92,0008.51,0007.98
2024-01-20 14:52:00,SystemResetWarning,0828.7,5.00,000.00,019.1,019.0,000.0,027.2,020.5,12.8,0000.7,0013.73,0008.55,0007.97
2024-01-20 14:53:00,SystemResetWarning,0828.6,5.00,000.00,019.0,018.9,000.0,027.2,020.4,12.9,0001.1,0013.74,0008.58,0008.02
2024-01-20 14:54:00,SystemResetWarning,0828.6,5.00,000.00,019.0,018.8,000.0,027.2,020.3,12.8,0003.3,0013.94,0008.58,0008.04
2024-01-20 14:55:00,SystemResetWarning,0828.6,5.01,000.00,019.0,018.7,000.0,027.2,020.2,12.8,0003.3,0013.42,0008.59,0008.05
2024-01-20 14:56:00,SystemResetWarning,0828.6,5.00,000.00,019.0,018.6,000.0,027.2,020.2,12.8,0003.4,0012.82,0008.63,0008.08
2024-01-20 14:57:00,SystemResetWarning,0828.6,4.99,000.00,018.9,018.5,000.0,027.2,020.1,12.6,0003.3,0012.97,0008.70,0008.13
2024-01-20 14:58:00,SystemResetWarning,0828.6,5.00,000.00,018.9,018.4,000.0,027.2,020.1,12.6,0003.5,0013.25,0008.76,0008.15
2024-01-20 14:59:00,SystemResetWarning,0828.6,5.00,000.00,018.9,018.3,000.0,027.2,020.0,12.5,0003.9,0013.29,0008.78,0008.18
